Regional Weather Roundup
Issued by NWS

Home | Current Version | Previous Version | Graphics & Text | Print | Product List | Glossary On
Versions: 1 2 3 4 5 6 7 8 9 10 11 12 13 14 15 16 17 18 19 20 21 22 23 24 25 26 27 28 29 30 31 32 33 34 35 36 37 38 39 40 41 42 43 44 45 46 47 48 49 50
234
ASUS43 KMKX 061511
RWRWI

WISCONSIN REGIONAL WEATHER ROUNDUP
NATIONAL WEATHER SERVICE MILWAUKEE/SULLIVAN WI
1000 AM CDT FRI MAY 06 2016

NOTE: "FAIR" INDICATES FEW OR NO CLOUDS BELOW 12,000 FEET WITH NO
SIGNIFICANT WEATHER AND/OR OBSTRUCTIONS TO VISIBILITY.

WIZ001-002-006>008-014>016-023>028-061600-
NORTHWEST WISCONSIN

CITY           SKY/WX    TMP DP  RH WIND       PRES   REMARKS
SUPERIOR ARPT  SUNNY     81  48  31 SW9       29.74F HX  80
ASHLAND        SUNNY     82  47  29 W9G18     29.77F HX  80
HAYWARD        SUNNY     74  44  34 SW8       29.83F
SIREN          SUNNY     75  43  31 SW7       29.83S
CUMBERLAND     SUNNY     73  41  31 W9        29.85F
RICE LAKE      SUNNY     74  41  30 SW9       29.86F
CHETEK         SUNNY     77  47  34 W8        29.85F
LADYSMITH      SUNNY     72  48  41 CALM      29.87S
EAU CLAIRE     SUNNY     73  46  38 SW9       29.86F
MENOMONIE      SUNNY     79  45  30 SW8       29.86F
NEW RICHMOND   SUNNY     74  46  36 SW7       29.85F
OSCEOLA        SUNNY     76  47  36 SW6       29.87S
$$

WIZ003>005-009-010-017-018-061600-
NORTH CENTRAL WISCONSIN

CITY           SKY/WX    TMP DP  RH WIND       PRES   REMARKS
MANITOWISH WTR SUNNY     73  45  36 W9        29.82F
ARBOR VITAE    SUNNY     72  43  34 W9        29.84S
WOODRUFF       SUNNY     72  43  34 W9        29.84S
RHINELANDER    SUNNY     74  43  32 NW9       29.86S
EAGLE RIVER    SUNNY     70  39  32 W3        29.84S
LAND O LAKES   SUNNY     72  39  30 W6        29.84F
PHILLIPS       SUNNY     73  45  36 SW5       29.84F
TOMAHAWK       SUNNY     73  41  31 W7        29.86S
MEDFORD        SUNNY     68  45  44 W7        29.87S
MERRILL        SUNNY     65  46  48 W3        29.87F
$$

WIZ029-030-035-036-043>047-061600-
CENTRAL WISCONSIN

CITY           SKY/WX    TMP DP  RH WIND       PRES   REMARKS
WAUSAU         SUNNY     70  44  39 W9        29.86S
MOSINEE        MOSUNNY   63  45  51 SW5       29.89S
MARSHFIELD     SUNNY     69  44  40 W10       29.87F
STEVENS POINT  MOSUNNY   63  41  44 W3        29.89F
WAUPACA        MOSUNNY   68  42  39 SW8       29.89F
WAUTOMA        PTSUNNY   66  43  43 SW6       29.91F
WISC RAPIDS    MOSUNNY   67  42  40 SW7       29.90F
CAMP DOUGLAS   MOSUNNY   70  48  46 SW7       29.90F
$$

WIZ011>013-019>022-031-037>040-048>050-061600-
NORTHEAST WISCONSIN

CITY           SKY/WX    TMP DP  RH WIND       PRES   REMARKS
ANTIGO         SUNNY     68  46  43 W5        29.87F
SHAWANO        SUNNY     69  42  38 SW6       29.87F
OCONTO         SUNNY     68  43  41 SW7       29.85F
STURGEON BAY   SUNNY     66  43  42 S10       29.89F
GREEN BAY      SUNNY     67  45  45 SW10      29.88F
MANITOWOC      SUNNY     70  41  34 SW10      29.90F
APPLETON       PTSUNNY   64  39  39 SW13      29.88F
CLINTONVILLE   SUNNY     68  45  42 SW7       29.87F
OSHKOSH        SUNNY     66  43  43 VRB6      29.89F
$$

WIZ032>034-041-042-053>061-061600-
SOUTHWEST WISCONSIN

CITY           SKY/WX    TMP DP  RH WIND       PRES   REMARKS
LA CROSSE      SUNNY     68  45  43 S10       29.89F
SPARTA         SUNNY     69  44  39 SW6       29.91S
VIROQUA        SUNNY     70  40  34 W8        29.93S
BOSCOBEL       MOSUNNY   67  44  43 SW7       29.94F
PRAIRIE DU CHI SUNNY     65  44  45 CALM      29.93F
PLATTEVILLE    MOSUNNY   65  44  46 SW6       29.97S
$$

WIZ056-057-062-063-064-067-068-061600-
SOUTH CENTRAL WISCONSIN

CITY           SKY/WX    TMP DP  RH WIND       PRES   REMARKS
REEDSBURG      MOSUNNY   65  46  50 S3        29.93S
BARABOO/DELLS  PTSUNNY   66  39  37 SW7       29.92F
LONE ROCK      CLOUDY    62  46  55 CALM      29.95F
MINERAL POINT  MOSUNNY   66  43  42 SW6       29.96F
MADISON        PTSUNNY   60  41  49 SW5       29.94F
MIDDLETON      MOSUNNY   68  44  41 W8        29.94F
WATERTOWN      SUNNY     66  44  43 SW7       29.93F
MONROE         MOSUNNY   63  43  48 SW10      29.97F
JANESVILLE     MOSUNNY   66  43  42 SW10      29.95F
$$

WIZ051-052-058>065-066-070>072-061600-
SOUTHEAST WISCONSIN

CITY           SKY/WX    TMP DP  RH WIND       PRES   REMARKS
MILWAUKEE      MOSUNNY   67  38  34 W9        29.94F
WAUKESHA       SUNNY     66  37  34 SW9       29.95F
MILWAUKEE/TIMM NOT AVBL
RACINE         CLOUDY    68  42  38 SW9       29.96F
BURLINGTON     SUNNY     67  38  34 SW13      29.95F
KENOSHA        CLOUDY    68  42  38 SW12      29.96F
FOND DU LAC    SUNNY     67  43  41 SW10      29.91F
SHEBOYGAN      SUNNY     70  42  36 SW13      29.90F
WEST BEND      SUNNY     68  37  32 SW7       29.91F
JUNEAU         SUNNY     63  43  47 SW10      29.94F
$$

LSZ147-162-061600-
LAKE SUPERIOR

STATION/POSITION TIME  TEMP    WIND        PRES    WAVE
                       AIR SEA DIR/SP/G            HT/PER
                 (UTC) (F)     (DEG/KT/KT) (MB)    (FT/S)
W MID LAKE BUOY  1450   46 37  210/ 10/ 10 1007.4F   1
DEVILS ISLAND    1400   60     230/ 18/ 20 1006.9F
SAXON HARBOR     1440   78     220/  7/ 13 1007.5F
$$

LMZ867-665-643>646-061600-
LAKE MICHIGAN

STATION/POSITION TIME  TEMP    WIND        PRES    WAVE
                       AIR SEA DIR/SP/G            HT/PER
                 (UTC) (F)     (DEG/KT/KT) (MB)    (FT/S)
CHAMBERS ISLAND  1400   59     190/  7/ 16 1011.5F
N MID LAKE BUOY  1450   42 39  190/ 14/ 16 1012.2S   2/ 4
NORTHPORT PIER   1400   49     150/  9/ 11 1011.9S
SISTER BAY       1434   65     170/  8/ 10   N/A
ALGOMA LAKESHORE 1445          200/ 11/ 13   N/A
KEWAUNEE LAKESHO 1400   47     160/  9/ 10 1011.7F
SHEBOYGAN LAKESH 1500   50     160/ 15/ 16 1013.1F
PORT WASHINGTON  1500   64     170/  8/ 13 1013.5F
S MID LAKE BUOY  1450   44 40  170/  8/  8 1014.9F   0
KENOSHA   LAKESH 1500   65     240/  9/ 15 1014.2F
$$

TC  - TEMPERATURE IN CELSIUS
VSB - VISIBILITY IN STATUTE MILES
WCI - WIND CHILL INDEX
HX  - HEAT INDEX





USA.gov is the U.S. government's official web portal to all federal, state and local government web resources and services.